YV7934 SVMG-MPTO

Flight info

Callsign YV7934
Flight time 2h 9m
Altitude 43000
Route ESPEP ESPEP DCT SARNI DCT IMBAT UP533 PBL UP650 ESEDA MEVID1A
Aircraft C750/M-SBDE3FGHRWXY/S

Departure

Time 2026-04-21 22:05
Airport Del Caribe Santiago Mariño International Airport (SVMG)

Arrival

Time 2026-04-22 00:14
Airport Tocumen International Airport (MPTO)
Time Latitude Longitude Altitude Speed Heading
2026-04-21 21:59 10.91318 -63.97244 55 ft 11 kts 260°
2026-04-21 21:59 10.91303 -63.97327 55 ft 13 kts 259°
2026-04-21 21:59 10.91284 -63.97423 57 ft 14 kts 257°
2026-04-21 21:59 10.91262 -63.97524 53 ft 15 kts 257°
2026-04-21 22:00 10.91239 -63.97627 56 ft 15 kts 258°
2026-04-21 22:00 10.91218 -63.97735 52 ft 16 kts 258°
2026-04-21 22:00 10.91194 -63.97849 51 ft 17 kts 258°
2026-04-21 22:00 10.91170 -63.97965 54 ft 17 kts 258°
2026-04-21 22:01 10.91146 -63.98077 56 ft 16 kts 258°
2026-04-21 22:01 10.91088 -63.98140 58 ft 12 kts 169°
2026-04-21 22:01 10.91035 -63.98115 67 ft 4 kts 144°
2026-04-21 22:01 10.91021 -63.98102 70 ft 3 kts 135°
2026-04-21 22:02 10.90996 -63.98077 65 ft 8 kts 135°
2026-04-21 22:02 10.90986 -63.98007 69 ft 16 kts 79°
2026-04-21 22:02 10.91059 -63.97650 68 ft 99 kts 78°
2026-04-21 22:02 10.91458 -63.97107 54 ft 0 kts 77°
2026-04-21 22:03 10.91456 -63.97106 54 ft 1 kts 117°
2026-04-21 22:03 10.91433 -63.97132 57 ft 14 kts 240°
2026-04-21 22:03 10.91322 -63.97156 57 ft 23 kts 167°
2026-04-21 22:04 10.91179 -63.97123 65 ft 14 kts 160°
2026-04-21 22:04 10.91178 -63.97084 65 ft 0 kts 79°
2026-04-21 22:04 10.91206 -63.96950 57 ft 62 kts 78°
2026-04-21 22:04 10.91362 -63.96202 61 ft 141 kts 78°
2026-04-21 22:05 10.91545 -63.95244 721 ft 132 kts 77°
2026-04-21 22:05 10.91720 -63.94269 1168 ft 151 kts 78°
2026-04-21 22:05 10.91950 -63.93147 1510 ft 171 kts 76°
2026-04-21 22:05 10.92229 -63.91961 2006 ft 183 kts 75°
2026-04-21 22:06 10.92220 -63.90570 2138 ft 217 kts 105°
2026-04-21 22:06 10.91343 -63.89309 2818 ft 222 kts 137°
2026-04-21 22:06 10.89880 -63.88752 3430 ft 234 kts 174°
2026-04-21 22:06 10.88322 -63.89227 4079 ft 240 kts 213°
2026-04-21 22:07 10.87247 -63.90495 4801 ft 235 kts 236°
2026-04-21 22:07 10.86358 -63.91902 5408 ft 240 kts 238°
2026-04-21 22:07 10.85411 -63.93401 5736 ft 264 kts 237°
2026-04-21 22:07 10.84351 -63.95025 6138 ft 283 kts 237°
2026-04-21 22:08 10.83259 -63.96688 7038 ft 282 kts 237°
2026-04-21 22:08 10.82168 -63.98365 7897 ft 286 kts 237°
2026-04-21 22:08 10.81067 -64.00063 8804 ft 289 kts 237°
2026-04-21 22:08 10.79950 -64.01779 9619 ft 293 kts 236°
2026-04-21 22:09 10.78812 -64.03526 10234 ft 304 kts 237°
2026-04-21 22:09 10.77596 -64.05393 10320 ft 330 kts 237°
2026-04-21 22:09 10.76482 -64.07532 10258 ft 357 kts 252°
2026-04-21 22:09 10.76214 -64.10049 10947 ft 356 kts 268°
2026-04-21 22:10 10.76128 -64.12565 11666 ft 358 kts 268°
2026-04-21 22:10 10.76005 -64.15110 12308 ft 362 kts 266°
2026-04-21 22:10 10.75856 -64.17672 12964 ft 364 kts 266°
2026-04-21 22:10 10.75721 -64.20263 13561 ft 368 kts 267°
2026-04-21 22:11 10.75600 -64.22871 14129 ft 372 kts 267°
2026-04-21 22:11 10.75472 -64.25509 14722 ft 375 kts 267°
2026-04-21 22:11 10.75336 -64.28143 15279 ft 379 kts 267°
2026-04-21 22:11 10.75198 -64.30831 15848 ft 382 kts 267°
2026-04-21 22:12 10.75061 -64.33544 16422 ft 386 kts 267°
2026-04-21 22:12 10.74924 -64.36283 17004 ft 390 kts 267°
2026-04-21 22:12 10.74783 -64.39048 17585 ft 393 kts 267°
2026-04-21 22:12 10.74641 -64.41843 18130 ft 398 kts 267°
2026-04-21 22:13 10.74497 -64.44671 18720 ft 402 kts 267°
2026-04-21 22:13 10.74352 -64.47520 19311 ft 406 kts 267°
2026-04-21 22:13 10.74204 -64.50396 19894 ft 409 kts 267°
2026-04-21 22:13 10.74056 -64.53301 20477 ft 413 kts 267°
2026-04-21 22:14 10.73907 -64.56231 21051 ft 416 kts 267°
2026-04-21 22:14 10.73754 -64.59192 21609 ft 420 kts 267°
2026-04-21 22:14 10.73624 -64.62134 22133 ft 424 kts 269°
2026-04-21 22:14 10.73584 -64.65179 22669 ft 428 kts 269°
2026-04-21 22:15 10.73513 -64.68215 23205 ft 431 kts 269°
2026-04-21 22:15 10.73436 -64.71274 23739 ft 435 kts 269°
2026-04-21 22:15 10.73376 -64.74326 24240 ft 439 kts 269°
2026-04-21 22:15 10.73322 -64.77438 24782 ft 441 kts 269°
2026-04-21 22:16 10.73259 -64.80567 25313 ft 444 kts 269°
2026-04-21 22:16 10.73189 -64.83707 25836 ft 446 kts 269°
2026-04-21 22:16 10.73123 -64.86882 26369 ft 448 kts 269°
2026-04-21 22:16 10.73060 -64.90060 26890 ft 451 kts 269°
2026-04-21 22:17 10.72993 -64.93256 27395 ft 453 kts 269°
2026-04-21 22:17 10.72924 -64.96465 27915 ft 455 kts 269°
2026-04-21 22:17 10.72858 -64.99690 28381 ft 457 kts 268°
2026-04-21 22:17 10.72791 -65.02919 28825 ft 459 kts 268°
2026-04-21 22:18 10.72721 -65.06182 29280 ft 461 kts 268°
2026-04-21 22:18 10.72649 -65.09449 29713 ft 464 kts 268°
2026-04-21 22:18 10.72579 -65.12742 30142 ft 466 kts 268°
2026-04-21 22:18 10.72509 -65.16038 30551 ft 468 kts 268°
2026-04-21 22:19 10.72438 -65.19349 30953 ft 469 kts 268°
2026-04-21 22:19 10.72365 -65.22653 31537 ft 466 kts 268°
2026-04-21 22:19 10.72292 -65.25939 32094 ft 464 kts 268°
2026-04-21 22:19 10.72221 -65.29213 32615 ft 462 kts 268°
2026-04-21 22:20 10.72149 -65.32475 33138 ft 460 kts 268°
2026-04-21 22:20 10.72077 -65.35720 33662 ft 458 kts 268°
2026-04-21 22:20 10.72005 -65.38952 34157 ft 457 kts 268°
2026-04-21 22:20 10.71932 -65.42179 34676 ft 455 kts 268°
2026-04-21 22:21 10.71860 -65.45384 35193 ft 452 kts 268°
2026-04-21 22:21 10.71789 -65.48530 35674 ft 451 kts 268°
2026-04-21 22:21 10.71717 -65.51717 36180 ft 449 kts 268°
2026-04-21 22:21 10.71645 -65.54884 36628 ft 448 kts 268°
2026-04-21 22:22 10.71573 -65.58044 37078 ft 447 kts 268°
2026-04-21 22:22 10.71499 -65.61197 37513 ft 446 kts 268°
2026-04-21 22:22 10.71426 -65.64348 37938 ft 445 kts 268°
2026-04-21 22:22 10.71353 -65.67495 38360 ft 444 kts 268°
2026-04-21 22:23 10.71282 -65.70638 38743 ft 444 kts 268°
2026-04-21 22:23 10.71209 -65.73770 39188 ft 443 kts 268°
2026-04-21 22:23 10.71133 -65.76898 39589 ft 442 kts 268°
2026-04-21 22:23 10.71060 -65.80023 39955 ft 442 kts 268°
2026-04-21 22:24 10.70987 -65.83148 40311 ft 443 kts 268°
2026-04-21 22:24 10.70912 -65.86275 40695 ft 442 kts 268°
2026-04-21 22:24 10.70837 -65.89395 41067 ft 442 kts 268°
2026-04-21 22:24 10.70762 -65.92514 41408 ft 442 kts 268°
2026-04-21 22:25 10.70687 -65.95644 41737 ft 442 kts 267°
2026-04-21 22:25 10.70611 -65.98766 42069 ft 442 kts 267°
2026-04-21 22:25 10.70535 -66.01893 42377 ft 442 kts 267°
2026-04-21 22:25 10.70459 -66.05017 42690 ft 442 kts 267°
2026-04-21 22:26 10.70382 -66.08151 42916 ft 445 kts 267°
2026-04-21 22:26 10.70251 -66.13449 42900 ft 457 kts 267°
2026-04-21 22:27 10.70089 -66.20013 42911 ft 471 kts 267°
2026-04-21 22:27 10.69919 -66.26764 42913 ft 484 kts 267°
2026-04-21 22:28 10.69744 -66.33696 42918 ft 496 kts 267°
2026-04-21 22:28 10.69564 -66.40788 42916 ft 507 kts 267°
2026-04-21 22:29 10.69379 -66.47991 42910 ft 507 kts 267°
2026-04-21 22:29 10.69197 -66.55047 42891 ft 492 kts 267°
2026-04-21 22:30 10.69013 -66.62015 42896 ft 495 kts 267°
2026-04-21 22:30 10.68830 -66.69013 42896 ft 495 kts 267°
2026-04-21 22:31 10.68643 -66.76013 42896 ft 495 kts 267°
2026-04-21 22:31 10.68456 -66.82966 42898 ft 495 kts 267°
2026-04-21 22:32 10.68267 -66.89965 42901 ft 495 kts 267°
2026-04-21 22:32 10.68076 -66.96966 42901 ft 495 kts 267°
2026-04-21 22:33 10.67884 -67.03967 42899 ft 495 kts 267°
2026-04-21 22:33 10.67690 -67.10967 42901 ft 496 kts 267°
2026-04-21 22:34 10.67494 -67.17971 42900 ft 496 kts 267°
2026-04-21 22:34 10.67297 -67.24977 42901 ft 496 kts 267°
2026-04-21 22:35 10.67098 -67.31981 42902 ft 496 kts 267°
2026-04-21 22:35 10.66897 -67.38998 42902 ft 496 kts 267°
2026-04-21 22:36 10.66594 -67.49506 42902 ft 496 kts 266°
2026-04-21 22:36 10.66389 -67.56525 42902 ft 496 kts 266°
2026-04-21 22:37 10.66185 -67.63492 42902 ft 497 kts 266°
2026-04-21 22:37 10.65977 -67.70510 42902 ft 497 kts 266°
2026-04-21 22:38 10.65767 -67.77530 42902 ft 497 kts 266°
2026-04-21 22:38 10.65114 -67.84491 42892 ft 494 kts 256°
2026-04-21 22:39 10.62554 -67.90939 42894 ft 493 kts 239°
2026-04-21 22:39 10.58345 -67.96406 42916 ft 492 kts 228°
2026-04-21 22:40 10.53786 -68.01619 42915 ft 493 kts 229°
2026-04-21 22:40 10.49840 -68.07278 42888 ft 494 kts 243°
2026-04-21 22:41 10.47691 -68.13907 42894 ft 497 kts 259°
2026-04-21 22:41 10.46834 -68.20887 42914 ft 498 kts 261°
2026-04-21 22:42 10.45967 -68.27864 42912 ft 497 kts 261°
2026-04-21 22:42 10.45124 -68.34840 42909 ft 497 kts 261°
2026-04-21 22:43 10.44267 -68.41799 42905 ft 497 kts 261°
2026-04-21 22:43 10.43416 -68.48761 42908 ft 497 kts 261°
2026-04-21 22:44 10.42564 -68.55676 42906 ft 497 kts 261°
2026-04-21 22:44 10.41708 -68.62637 42906 ft 496 kts 261°
2026-04-21 22:45 10.40851 -68.69583 42907 ft 496 kts 261°
2026-04-21 22:45 10.39990 -68.76548 42905 ft 496 kts 261°
2026-04-21 22:46 10.39128 -68.83516 42907 ft 497 kts 261°
2026-04-21 22:46 10.38263 -68.90485 42904 ft 497 kts 261°
2026-04-21 22:47 10.37397 -68.97457 42908 ft 498 kts 261°
2026-04-21 22:47 10.36529 -69.04432 42905 ft 498 kts 261°
2026-04-21 22:48 10.35658 -69.11415 42910 ft 499 kts 261°
2026-04-21 22:48 10.34787 -69.18393 42904 ft 499 kts 261°
2026-04-21 22:49 10.33912 -69.25386 42900 ft 499 kts 261°
2026-04-21 22:49 10.33040 -69.32343 42895 ft 500 kts 261°
2026-04-21 22:50 10.32159 -69.39355 42899 ft 500 kts 261°
2026-04-21 22:50 10.31277 -69.46366 42901 ft 501 kts 261°
2026-04-21 22:51 10.30393 -69.53386 42902 ft 502 kts 261°
2026-04-21 22:51 10.29506 -69.60415 42898 ft 502 kts 261°
2026-04-21 22:52 10.28616 -69.67450 42902 ft 502 kts 261°
2026-04-21 22:52 10.27724 -69.74495 42889 ft 503 kts 261°
2026-04-21 22:53 10.26829 -69.81545 42881 ft 504 kts 261°
2026-04-21 22:53 10.25932 -69.88602 42883 ft 504 kts 261°
2026-04-21 22:54 10.25033 -69.95661 42882 ft 504 kts 261°
2026-04-21 22:54 10.24132 -70.02727 42882 ft 504 kts 261°
2026-04-21 22:55 10.23229 -70.09791 42882 ft 504 kts 261°
2026-04-21 22:55 10.22331 -70.16808 42882 ft 504 kts 261°
2026-04-21 22:56 10.21427 -70.23860 42883 ft 504 kts 261°
2026-04-21 22:56 10.20520 -70.30916 42883 ft 504 kts 261°
2026-04-21 22:57 10.19612 -70.37971 42884 ft 504 kts 261°
2026-04-21 22:57 10.18702 -70.45023 42891 ft 504 kts 261°
2026-04-21 22:58 10.17792 -70.52067 42891 ft 503 kts 261°
2026-04-21 22:58 10.16881 -70.59110 42901 ft 503 kts 261°
2026-04-21 22:59 10.15969 -70.66152 42902 ft 503 kts 261°
2026-04-21 22:59 10.15054 -70.73193 42902 ft 503 kts 261°
2026-04-21 23:00 10.14139 -70.80227 42902 ft 503 kts 261°
2026-04-21 23:00 10.13223 -70.87262 42901 ft 503 kts 261°
2026-04-21 23:01 10.12304 -70.94299 42902 ft 503 kts 261°
2026-04-21 23:01 10.11383 -71.01339 42901 ft 503 kts 261°
2026-04-21 23:02 10.10466 -71.08336 42882 ft 503 kts 261°
2026-04-21 23:02 10.09542 -71.15375 42882 ft 503 kts 261°
2026-04-21 23:03 10.08615 -71.22427 42882 ft 505 kts 261°
2026-04-21 23:03 10.07686 -71.29482 42882 ft 504 kts 261°
2026-04-21 23:04 10.06754 -71.36542 42883 ft 505 kts 261°
2026-04-21 23:04 10.05657 -71.43587 42879 ft 505 kts 260°
2026-04-21 23:05 10.04580 -71.50633 42880 ft 506 kts 259°
2026-04-21 23:05 10.03466 -71.57676 42880 ft 506 kts 260°
2026-04-21 23:06 10.02372 -71.64744 42881 ft 507 kts 259°
2026-04-21 23:06 10.01261 -71.71806 42880 ft 507 kts 259°
2026-04-21 23:07 10.00151 -71.78870 42881 ft 508 kts 259°
2026-04-21 23:07 9.99040 -71.85902 42881 ft 508 kts 259°
2026-04-21 23:08 9.97927 -71.92982 42884 ft 508 kts 259°
2026-04-21 23:08 9.96809 -72.00051 42898 ft 509 kts 259°
2026-04-21 23:09 9.95691 -72.07132 42895 ft 508 kts 259°
2026-04-21 23:09 9.94572 -72.14201 42894 ft 508 kts 259°
2026-04-21 23:10 9.93450 -72.21275 42895 ft 508 kts 259°
2026-04-21 23:10 9.92328 -72.28350 42894 ft 508 kts 259°
2026-04-21 23:11 9.91202 -72.35431 42895 ft 508 kts 259°
2026-04-21 23:11 9.90083 -72.42460 42895 ft 508 kts 259°
2026-04-21 23:12 9.88957 -72.49528 42895 ft 507 kts 259°
2026-04-21 23:12 9.87829 -72.56590 42891 ft 507 kts 259°
2026-04-21 23:13 9.86701 -72.63653 42891 ft 507 kts 259°
2026-04-21 23:13 9.85570 -72.70719 42895 ft 507 kts 259°
2026-04-21 23:14 9.84438 -72.77780 42892 ft 507 kts 259°
2026-04-21 23:14 9.83307 -72.84828 42912 ft 507 kts 259°
2026-04-21 23:15 9.82171 -72.91898 42914 ft 507 kts 259°
2026-04-21 23:15 9.81034 -72.98956 42909 ft 507 kts 259°
2026-04-21 23:16 9.80058 -73.04807 42906 ft 506 kts 259°
2026-04-21 23:16 9.78886 -73.11849 42906 ft 506 kts 259°
2026-04-21 23:17 9.77720 -73.18887 42906 ft 506 kts 259°
2026-04-21 23:17 9.76546 -73.25919 42908 ft 505 kts 259°
2026-04-21 23:18 9.75380 -73.32934 42904 ft 505 kts 259°
2026-04-21 23:18 9.74205 -73.39962 42909 ft 505 kts 259°
2026-04-21 23:19 9.73033 -73.46983 42910 ft 505 kts 259°
2026-04-21 23:19 9.71858 -73.54002 42898 ft 505 kts 259°
2026-04-21 23:20 9.70682 -73.61025 42897 ft 505 kts 259°
2026-04-21 23:20 9.69514 -73.67987 42898 ft 505 kts 259°
2026-04-21 23:21 9.68341 -73.75006 42900 ft 504 kts 259°
2026-04-21 23:21 9.67182 -73.82019 42897 ft 504 kts 259°
2026-04-21 23:22 9.66012 -73.89030 42900 ft 504 kts 259°
2026-04-21 23:22 9.64846 -73.96042 42890 ft 505 kts 259°
2026-04-21 23:23 9.63676 -74.03049 42889 ft 504 kts 259°
2026-04-21 23:23 9.62505 -74.10066 42888 ft 504 kts 259°
2026-04-21 23:24 9.61339 -74.17037 42890 ft 505 kts 259°
2026-04-21 23:24 9.60165 -74.24050 42890 ft 505 kts 259°
2026-04-21 23:25 9.58989 -74.31065 42888 ft 505 kts 259°
2026-04-21 23:25 9.57811 -74.38082 42878 ft 505 kts 259°
2026-04-21 23:26 9.56632 -74.45097 42881 ft 505 kts 259°
2026-04-21 23:26 9.55451 -74.52115 42871 ft 505 kts 259°
2026-04-21 23:27 9.54268 -74.59135 42870 ft 506 kts 259°
2026-04-21 23:27 9.53083 -74.66160 42861 ft 506 kts 259°
2026-04-21 23:28 9.51896 -74.73187 42862 ft 506 kts 259°
2026-04-21 23:28 9.50709 -74.80210 42861 ft 506 kts 259°
2026-04-21 23:29 9.49521 -74.87193 42864 ft 506 kts 258°
2026-04-21 23:29 9.48231 -74.94207 42863 ft 507 kts 258°
2026-04-21 23:30 9.46981 -75.01230 42861 ft 507 kts 258°
2026-04-21 23:30 9.45709 -75.08254 42860 ft 507 kts 258°
2026-04-21 23:31 9.44444 -75.15273 42861 ft 507 kts 258°
2026-04-21 23:31 9.43174 -75.22306 42862 ft 508 kts 258°
2026-04-21 23:32 9.41900 -75.29339 42862 ft 508 kts 258°
2026-04-21 23:32 9.40627 -75.36378 42862 ft 508 kts 258°
2026-04-21 23:33 9.39350 -75.43410 42862 ft 508 kts 258°
2026-04-21 23:33 9.38072 -75.50457 42864 ft 508 kts 258°
2026-04-21 23:34 9.36792 -75.57498 42864 ft 509 kts 258°
2026-04-21 23:34 9.35519 -75.64495 42862 ft 509 kts 258°
2026-04-21 23:35 9.34236 -75.71539 42863 ft 509 kts 258°
2026-04-21 23:35 9.32951 -75.78584 42863 ft 509 kts 258°
2026-04-21 23:36 9.31665 -75.85629 42864 ft 509 kts 258°
2026-04-21 23:36 9.30376 -75.92681 42863 ft 509 kts 258°
2026-04-21 23:37 9.29088 -75.99722 42863 ft 509 kts 258°
2026-04-21 23:37 9.27798 -76.06765 42863 ft 508 kts 258°
2026-04-21 23:38 9.26506 -76.13802 42863 ft 508 kts 258°
2026-04-21 23:38 9.25215 -76.20839 42867 ft 508 kts 258°
2026-04-21 23:39 9.23922 -76.27871 42866 ft 508 kts 258°
2026-04-21 23:39 9.22627 -76.34903 42867 ft 508 kts 258°
2026-04-21 23:40 9.21331 -76.41940 42864 ft 508 kts 258°
2026-04-21 23:40 9.20033 -76.48977 42866 ft 508 kts 258°
2026-04-21 23:41 9.18744 -76.55955 42865 ft 508 kts 258°
2026-04-21 23:41 9.17446 -76.62979 42865 ft 507 kts 258°
2026-04-21 23:42 9.16146 -76.70001 42864 ft 507 kts 258°
2026-04-21 23:42 9.14848 -76.77005 42865 ft 507 kts 258°
2026-04-21 23:43 9.13547 -76.84022 42868 ft 507 kts 258°
2026-04-21 23:43 9.12246 -76.91028 42869 ft 507 kts 258°
2026-04-21 23:44 9.10944 -76.98032 42866 ft 506 kts 258°
2026-04-21 23:44 9.09641 -77.05035 42867 ft 506 kts 258°
2026-04-21 23:45 9.07683 -77.15543 42866 ft 506 kts 258°
2026-04-21 23:46 9.06378 -77.22534 42867 ft 506 kts 258°
2026-04-21 23:46 9.05069 -77.29537 42868 ft 506 kts 258°
2026-04-21 23:47 9.03761 -77.36535 42866 ft 506 kts 258°
2026-04-21 23:47 9.03062 -77.43645 42840 ft 514 kts 271°
2026-04-21 23:48 9.04047 -77.50838 42870 ft 517 kts 278°
2026-04-21 23:48 9.05058 -77.57986 42866 ft 516 kts 275°
2026-04-21 23:49 9.05972 -77.65152 42362 ft 508 kts 277°
2026-04-21 23:49 9.06507 -77.68643 41731 ft 497 kts 276°
2026-04-21 23:49 9.06973 -77.72070 41111 ft 487 kts 275°
2026-04-21 23:49 9.07390 -77.75435 40500 ft 477 kts 275°
2026-04-21 23:50 9.07829 -77.78735 39901 ft 469 kts 276°
2026-04-21 23:50 9.08290 -77.81973 39308 ft 461 kts 276°
2026-04-21 23:50 9.08730 -77.85164 38723 ft 455 kts 275°
2026-04-21 23:50 9.09145 -77.88331 38132 ft 454 kts 275°
2026-04-21 23:51 9.09565 -77.91496 37531 ft 455 kts 275°
2026-04-21 23:51 9.09999 -77.94675 36922 ft 458 kts 275°
2026-04-21 23:51 9.10438 -77.97877 36316 ft 461 kts 275°
2026-04-21 23:51 9.10870 -78.01101 35681 ft 464 kts 275°
2026-04-21 23:52 9.11301 -78.04344 35052 ft 466 kts 275°
2026-04-21 23:52 9.11740 -78.07601 34425 ft 468 kts 275°
2026-04-21 23:52 9.12184 -78.10871 33854 ft 470 kts 275°
2026-04-21 23:52 9.12624 -78.14139 33384 ft 471 kts 275°
2026-04-21 23:53 9.13064 -78.17439 32755 ft 475 kts 275°
2026-04-21 23:53 9.13507 -78.20749 32121 ft 475 kts 276°
2026-04-21 23:53 9.13954 -78.24062 31492 ft 476 kts 276°
2026-04-21 23:53 9.14399 -78.27380 30857 ft 476 kts 276°
2026-04-21 23:54 9.14845 -78.30709 30221 ft 478 kts 276°
2026-04-21 23:54 9.15289 -78.34031 29588 ft 474 kts 276°
2026-04-21 23:54 9.15729 -78.37314 28983 ft 469 kts 276°
2026-04-21 23:54 9.16161 -78.40544 28371 ft 466 kts 277°
2026-04-21 23:55 9.16593 -78.43784 27758 ft 463 kts 277°
2026-04-21 23:55 9.17022 -78.46997 27153 ft 461 kts 277°
2026-04-21 23:55 9.17450 -78.50203 26551 ft 458 kts 277°
2026-04-21 23:55 9.17874 -78.53386 25947 ft 455 kts 277°
2026-04-21 23:56 9.18296 -78.56553 25346 ft 453 kts 277°
2026-04-21 23:56 9.18716 -78.59703 24761 ft 450 kts 277°
2026-04-21 23:56 9.19132 -78.62835 24162 ft 448 kts 277°
2026-04-21 23:56 9.19547 -78.65959 23569 ft 446 kts 277°
2026-04-21 23:57 9.19957 -78.69047 22988 ft 441 kts 277°
2026-04-21 23:57 9.20364 -78.72109 22411 ft 437 kts 277°
2026-04-21 23:57 9.20766 -78.75140 21835 ft 432 kts 277°
2026-04-21 23:57 9.21164 -78.78140 21275 ft 428 kts 277°
2026-04-21 23:58 9.21553 -78.81078 20720 ft 424 kts 277°
2026-04-21 23:58 9.21943 -78.84020 20166 ft 420 kts 277°
2026-04-21 23:58 9.22330 -78.86936 19617 ft 416 kts 277°
2026-04-21 23:58 9.22712 -78.89826 19064 ft 412 kts 277°
2026-04-21 23:59 9.23089 -78.92691 18527 ft 409 kts 277°
2026-04-21 23:59 9.23464 -78.95527 17993 ft 405 kts 277°
2026-04-21 23:59 9.23836 -78.98338 17463 ft 401 kts 277°
2026-04-21 23:59 9.24203 -79.01116 16938 ft 397 kts 277°
2026-04-22 00:00 9.24565 -79.03874 16418 ft 393 kts 277°
2026-04-22 00:00 9.24925 -79.06610 15899 ft 391 kts 277°
2026-04-22 00:00 9.25256 -79.09326 15381 ft 387 kts 275°
2026-04-22 00:00 9.24971 -79.12016 14834 ft 384 kts 253°
2026-04-22 00:01 9.23837 -79.14411 14467 ft 373 kts 235°
2026-04-22 00:01 9.22071 -79.16222 14020 ft 354 kts 217°
2026-04-22 00:01 9.20082 -79.17579 13600 ft 337 kts 213°
2026-04-22 00:01 9.18147 -79.18852 13159 ft 324 kts 213°
2026-04-22 00:02 9.16294 -79.20087 12734 ft 314 kts 213°
2026-04-22 00:02 9.14492 -79.21306 12320 ft 310 kts 213°
2026-04-22 00:02 9.12708 -79.22504 11919 ft 307 kts 213°
2026-04-22 00:02 9.10935 -79.23686 11512 ft 305 kts 213°
2026-04-22 00:03 9.09166 -79.24868 11109 ft 305 kts 213°
2026-04-22 00:03 9.07399 -79.26049 10702 ft 304 kts 213°
2026-04-22 00:03 9.05631 -79.27232 10295 ft 303 kts 213°
2026-04-22 00:03 9.03874 -79.28407 9896 ft 302 kts 214°
2026-04-22 00:04 9.02109 -79.29559 9488 ft 301 kts 211°
2026-04-22 00:04 9.00257 -79.30547 9091 ft 300 kts 208°
2026-04-22 00:04 8.99049 -79.31217 8830 ft 300 kts 209°
2026-04-22 00:04 8.97227 -79.32246 8434 ft 300 kts 209°
2026-04-22 00:05 8.95403 -79.33250 8035 ft 297 kts 208°
2026-04-22 00:05 8.93589 -79.34235 7649 ft 296 kts 208°
2026-04-22 00:05 8.91783 -79.35221 7251 ft 294 kts 208°
2026-04-22 00:05 8.89985 -79.36210 6866 ft 292 kts 209°
2026-04-22 00:06 8.88202 -79.37188 6463 ft 291 kts 208°
2026-04-22 00:06 8.86429 -79.38156 6081 ft 290 kts 208°
2026-04-22 00:06 8.84689 -79.39168 5674 ft 286 kts 215°
2026-04-22 00:06 8.83438 -79.40695 5247 ft 281 kts 244°
2026-04-22 00:07 8.82812 -79.42508 4948 ft 267 kts 255°
2026-04-22 00:07 8.82306 -79.44290 4612 ft 261 kts 256°
2026-04-22 00:07 8.81798 -79.46035 4271 ft 257 kts 255°
2026-04-22 00:07 8.81274 -79.47757 3932 ft 255 kts 255°
2026-04-22 00:08 8.80809 -79.49478 3563 ft 252 kts 262°
2026-04-22 00:08 8.81060 -79.51177 3137 ft 244 kts 299°
2026-04-22 00:08 8.82261 -79.52262 2995 ft 229 kts 340°
2026-04-22 00:08 8.83807 -79.52278 3026 ft 226 kts 16°
2026-04-22 00:09 8.85174 -79.51453 3128 ft 234 kts 37°
2026-04-22 00:09 8.86428 -79.50374 3144 ft 238 kts 39°
2026-04-22 00:09 8.87725 -79.49342 3080 ft 239 kts 36°
2026-04-22 00:09 8.89060 -79.48316 2892 ft 241 kts 37°
2026-04-22 00:10 8.90423 -79.47376 2676 ft 240 kts 30°
2026-04-22 00:10 8.91885 -79.46569 2460 ft 239 kts 28°
2026-04-22 00:10 8.93338 -79.45757 2241 ft 239 kts 28°
2026-04-22 00:10 8.94772 -79.44937 2037 ft 233 kts 29°
2026-04-22 00:11 8.96136 -79.44156 1817 ft 218 kts 29°
2026-04-22 00:11 8.97398 -79.43438 1681 ft 196 kts 29°
2026-04-22 00:11 8.98536 -79.42791 1430 ft 181 kts 28°
2026-04-22 00:11 8.99585 -79.42196 1184 ft 161 kts 30°
2026-04-22 00:12 9.00497 -79.41679 988 ft 142 kts 31°
2026-04-22 00:12 9.01333 -79.41205 813 ft 136 kts 31°
2026-04-22 00:12 9.02154 -79.40739 645 ft 135 kts 30°
2026-04-22 00:12 9.02974 -79.40272 470 ft 135 kts 30°
2026-04-22 00:13 9.03794 -79.39806 299 ft 135 kts 30°
2026-04-22 00:13 9.04615 -79.39342 112 ft 136 kts 30°
2026-04-22 00:13 9.05410 -79.38890 28 ft 119 kts 30°
2026-04-22 00:13 9.05954 -79.38585 29 ft 63 kts 29°
2026-04-22 00:14 9.06280 -79.38402 27 ft 35 kts 23°
2026-04-22 00:14 9.06448 -79.38376 26 ft 22 kts 359°
2026-04-22 00:14 9.06594 -79.38378 26 ft 20 kts
2026-04-22 00:14 9.06722 -79.38324 26 ft 20 kts 27°
2026-04-22 00:15 9.06850 -79.38255 26 ft 21 kts 29°
2026-04-22 00:15 9.06979 -79.38184 26 ft 22 kts 28°
2026-04-22 00:15 9.07082 -79.38138 27 ft 11 kts
2026-04-22 00:15 9.07133 -79.38191 27 ft 11 kts 298°
2026-04-22 00:16 9.07171 -79.38265 27 ft 12 kts 294°
2026-04-22 00:16 9.07162 -79.38343 27 ft 12 kts 226°
2026-04-22 00:16 9.07108 -79.38339 27 ft 9 kts 120°
2026-04-22 00:16 9.07090 -79.38309 27 ft 2 kts 122°
2026-04-22 00:17 9.07086 -79.38302 27 ft 0 kts 122°